Wetterdaten: Samstag, 12.10.2013
Datum Zeit Temperatur Luftfeuchte Luftdruck Regen Wind Richtung Richtung Taupunkt Windchill Windben
12.10.2013 00:00 -2,0 C 97 % 1016,6 hPa 0,0 l/m 0,2 km/h (0 Bft) O-NO 67 -2,4 C -2,3 C 0,0 km/h (0 Bft)
12.10.2013 00:05 -1,9 C 97 % 1016,6 hPa 0,0 l/m 0,0 km/h (0 Bft) NO 45 -2,3 C -2,4 C 0,0 km/h (0 Bft)
12.10.2013 00:10 -2,0 C 97 % 1016,4 hPa 0,0 l/m 0,0 km/h (0 Bft) O-NO 67 -2,4 C -2,5 C 0,0 km/h (0 Bft)
12.10.2013 00:15 -1,8 C 97 % 1016,4 hPa 0,0 l/m 0,0 km/h (0 Bft) NO 45 -2,2 C -2,5 C 0,0 km/h (0 Bft)
12.10.2013 00:20 -1,5 C 97 % 1016,4 hPa 0,0 l/m 0,6 km/h (0 Bft) S 180 -1,9 C -1,9 C 0,0 km/h (0 Bft)
12.10.2013 00:25 -1,5 C 97 % 1016,4 hPa 0,0 l/m 0,6 km/h (0 Bft) O-SO 112 -1,9 C -1,8 C 0,0 km/h (0 Bft)
12.10.2013 00:30 -1,3 C 97 % 1016,5 hPa 0,0 l/m 0,3 km/h (0 Bft) N 360 -1,7 C -1,7 C 0,0 km/h (0 Bft)
12.10.2013 00:35 -1,1 C 97 % 1016,5 hPa 0,0 l/m 0,5 km/h (0 Bft) W-NW 292 -1,5 C -1,5 C 1,8 km/h (1 Bft)
12.10.2013 00:40 -0,9 C 97 % 1016,5 hPa 0,0 l/m 1,0 km/h (0 Bft) S-SW 202 -1,3 C -1,2 C 3,4 km/h (1 Bft)
12.10.2013 00:45 -0,9 C 97 % 1016,5 hPa 0,0 l/m 1,3 km/h (1 Bft) SO 135 -1,3 C -1,1 C 1,8 km/h (1 Bft)
12.10.2013 00:50 -0,7 C 97 % 1016,3 hPa 0,0 l/m 1,1 km/h (1 Bft) NO 45 -1,1 C -1,2 C 2,7 km/h (1 Bft)
12.10.2013 00:55 -0,5 C 97 % 1016,3 hPa 0,0 l/m 1,6 km/h (1 Bft) N 360 -0,9 C -1,1 C 4,5 km/h (1 Bft)
12.10.2013 01:00 -0,8 C 97 % 1016,3 hPa 0,0 l/m 1,8 km/h (1 Bft) NW 315 -1,2 C -1,0 C 0,0 km/h (0 Bft)
12.10.2013 01:05 -0,9 C 97 % 1016,3 hPa 0,0 l/m 1,1 km/h (1 Bft) W-NW 292 -1,3 C -1,1 C 0,0 km/h (0 Bft)
12.10.2013 01:10 -1,1 C 97 % 1016,4 hPa 0,0 l/m 0,2 km/h (0 Bft) W-NW 292 -1,5 C -1,4 C 0,0 km/h (0 Bft)
12.10.2013 01:15 -1,1 C 97 % 1016,4 hPa 0,0 l/m 0,0 km/h (0 Bft) W-NW 292 -1,5 C -1,6 C 0,0 km/h (0 Bft)
12.10.2013 01:20 -1,2 C 97 % 1016,4 hPa 0,0 l/m 0,0 km/h (0 Bft) N-NW 337 -1,6 C -1,6 C 0,0 km/h (0 Bft)
12.10.2013 01:25 -1,0 C 97 % 1016,4 hPa 0,0 l/m 0,0 km/h (0 Bft) W-NW 292 -1,4 C -1,5 C 0,0 km/h (0 Bft)
12.10.2013 01:30 -1,0 C 97 % 1016,6 hPa 0,0 l/m 0,2 km/h (0 Bft) N 360 -1,4 C -1,3 C 0,0 km/h (0 Bft)
12.10.2013 01:35 -1,0 C 97 % 1016,6 hPa 0,0 l/m 0,5 km/h (0 Bft) N-NW 337 -1,4 C -1,3 C 2,4 km/h (1 Bft)
12.10.2013 01:40 -1,1 C 97 % 1016,6 hPa 0,0 l/m 0,6 km/h (0 Bft) NW 315 -1,5 C -1,3 C 1,6 km/h (1 Bft)
12.10.2013 01:45 -1,1 C 97 % 1016,6 hPa 0,0 l/m 0,5 km/h (0 Bft) N-NW 337 -1,5 C -1,3 C 0,0 km/h (0 Bft)
12.10.2013 01:50 -0,9 C 97 % 1016,2 hPa 0,0 l/m 0,5 km/h (0 Bft) NO 45 -1,3 C -1,2 C 0,0 km/h (0 Bft)
12.10.2013 01:55 -0,8 C 97 % 1016,2 hPa 0,0 l/m 1,6 km/h (1 Bft) O-NO 67 -1,2 C -1,1 C 4,0 km/h (1 Bft)
12.10.2013 02:00 -0,8 C 97 % 1016,2 hPa 0,0 l/m 1,9 km/h (1 Bft) S 180 -1,2 C -1,0 C 5,1 km/h (1 Bft)
12.10.2013 02:05 -0,7 C 97 % 1016,2 hPa 0,0 l/m 1,3 km/h (1 Bft) SW 225 -1,1 C -1,0 C 2,3 km/h (1 Bft)
12.10.2013 02:10 -0,7 C 97 % 1016,4 hPa 0,0 l/m 1,0 km/h (0 Bft) S 180 -1,1 C -0,9 C 0,0 km/h (0 Bft)
12.10.2013 02:15 -0,7 C 97 % 1016,4 hPa 0,0 l/m 1,3 km/h (1 Bft) S 180 -1,1 C -0,9 C 2,9 km/h (1 Bft)
12.10.2013 02:20 -0,5 C 97 % 1016,4 hPa 0,0 l/m 1,1 km/h (1 Bft) NO 45 -0,9 C -0,9 C 1,9 km/h (1 Bft)
12.10.2013 02:25 -0,5 C 97 % 1016,4 hPa 0,0 l/m 1,1 km/h (1 Bft) N 360 -0,9 C -0,9 C 0,0 km/h (0 Bft)
12.10.2013 02:30 -0,5 C 97 % 1015,9 hPa 0,0 l/m 1,0 km/h (0 Bft) N-NO 22 -0,9 C -0,8 C 0,0 km/h (0 Bft)
12.10.2013 02:35 -0,5 C 97 % 1015,9 hPa 0,0 l/m 2,1 km/h (1 Bft) S-SO 157 -0,9 C -0,8 C 5,1 km/h (1 Bft)
12.10.2013 02:40 -0,5 C 97 % 1015,9 hPa 0,0 l/m 2,6 km/h (1 Bft) S-SW 202 -0,9 C -0,8 C 7,1 km/h (2 Bft)
12.10.2013 02:45 -0,6 C 97 % 1015,9 hPa 0,0 l/m 1,6 km/h (1 Bft) W-NW 292 -1,0 C -0,7 C 1,9 km/h (1 Bft)
12.10.2013 02:50 -0,6 C 97 % 1016,1 hPa 0,0 l/m 0,8 km/h (0 Bft) N-NW 337 -1,0 C -0,9 C 2,4 km/h (1 Bft)
12.10.2013 02:55 -0,7 C 97 % 1016,1 hPa 0,0 l/m 0,6 km/h (0 Bft) O 90 -1,1 C -1,0 C 0,0 km/h (0 Bft)
12.10.2013 03:00 -0,5 C 97 % 1016,1 hPa 0,0 l/m 1,3 km/h (1 Bft) NO 45 -0,9 C -1,0 C 1,9 km/h (1 Bft)
12.10.2013 03:05 -0,4 C 97 % 1016,1 hPa 0,0 l/m 1,0 km/h (0 Bft) NW 315 -0,8 C -0,9 C 2,3 km/h (1 Bft)
12.10.2013 03:10 -0,5 C 97 % 1015,8 hPa 0,0 l/m 0,3 km/h (0 Bft) W-NW 292 -0,9 C -0,8 C 0,0 km/h (0 Bft)
12.10.2013 03:15 -0,5 C 98 % 1015,8 hPa 0,0 l/m 0,6 km/h (0 Bft) W-NW 292 -0,8 C -0,8 C 0,0 km/h (0 Bft)
12.10.2013 03:20 -0,3 C 97 % 1015,8 hPa 0,0 l/m 1,3 km/h (1 Bft) O-NO 67 -0,7 C -0,7 C 2,9 km/h (1 Bft)
12.10.2013 03:25 -0,3 C 97 % 1015,8 hPa 0,0 l/m 1,0 km/h (0 Bft) N-NW 337 -0,7 C -0,6 C 0,0 km/h (0 Bft)
12.10.2013 03:30 -0,4 C 97 % 1015,6 hPa 0,0 l/m 0,6 km/h (0 Bft) S 180 -0,8 C -0,5 C 1,6 km/h (1 Bft)
12.10.2013 03:35 -0,3 C 97 % 1015,6 hPa 0,0 l/m 0,6 km/h (0 Bft) NO 45 -0,7 C -0,5 C 1,8 km/h (1 Bft)
12.10.2013 03:40 -0,1 C 98 % 1015,6 hPa 0,0 l/m 1,6 km/h (1 Bft) N 360 -0,4 C -0,4 C 2,4 km/h (1 Bft)
12.10.2013 03:45 0,0 C 98 % 1015,6 hPa 0,0 l/m 2,3 km/h (1 Bft) NW 315 -0,3 C -0,3 C 1,9 km/h (1 Bft)
12.10.2013 03:50 0,0 C 98 % 1015,3 hPa 0,0 l/m 1,8 km/h (1 Bft) W-SW 247 -0,3 C -0,2 C 1,8 km/h (1 Bft)
12.10.2013 03:55 0,0 C 98 % 1015,3 hPa 0,0 l/m 1,1 km/h (1 Bft) W-SW 247 -0,3 C -0,1 C 1,8 km/h (1 Bft)
12.10.2013 04:00 0,0 C 98 % 1015,3 hPa 0,0 l/m 0,3 km/h (0 Bft) N 360 -0,3 C -0,2 C 0,0 km/h (0 Bft)
12.10.2013 04:05 0,0 C 98 % 1015,3 hPa 0,0 l/m 0,5 km/h (0 Bft) N-NW 337 -0,3 C -0,2 C 1,8 km/h (1 Bft)
12.10.2013 04:10 0,0 C 98 % 1015,5 hPa 0,0 l/m 1,0 km/h (0 Bft) W-NW 292 -0,3 C -0,2 C 0,0 km/h (0 Bft)
12.10.2013 04:15 0,1 C 98 % 1015,5 hPa 0,0 l/m 0,8 km/h (0 Bft) N-NW 337 -0,2 C -0,1 C 0,0 km/h (0 Bft)
12.10.2013 04:20 0,1 C 98 % 1015,5 hPa 0,0 l/m 0,6 km/h (0 Bft) N-NW 337 -0,2 C 0,0 C 3,1 km/h (1 Bft)
12.10.2013 04:25 0,1 C 98 % 1015,5 hPa 0,0 l/m 1,1 km/h (1 Bft) N 360 -0,2 C 0,0 C 3,7 km/h (1 Bft)
12.10.2013 04:28 0,1 C 98 % 1015,4 hPa 0,0 l/m 1,8 km/h (1 Bft) W-NW 292 -0,2 C 0,1 C 2,7 km/h (1 Bft)
12.10.2013 04:30 0,1 C 98 % 1015,4 hPa 0,0 l/m 1,8 km/h (1 Bft) W-NW 292 -0,2 C 0,1 C 2,7 km/h (1 Bft)
12.10.2013 04:35 0,1 C 98 % 1015,4 hPa 0,0 l/m 1,8 km/h (1 Bft) N 360 -0,2 C 0,1 C 2,4 km/h (1 Bft)
12.10.2013 04:40 0,1 C 98 % 1015,4 hPa 0,0 l/m 1,9 km/h (1 Bft) N-NW 337 -0,2 C 0,1 C 3,9 km/h (1 Bft)
12.10.2013 04:45 0,1 C 98 % 1015,4 hPa 0,0 l/m 2,4 km/h (1 Bft) N-NW 337 -0,2 C 0,1 C 3,9 km/h (1 Bft)
12.10.2013 04:50 0,1 C 98 % 1015,2 hPa 0,0 l/m 1,8 km/h (1 Bft) W 270 -0,2 C 0,1 C 0,0 km/h (0 Bft)
12.10.2013 04:55 0,1 C 98 % 1015,2 hPa 0,0 l/m 0,8 km/h (0 Bft) W-NW 292 -0,2 C 0,1 C 1,9 km/h (1 Bft)
12.10.2013 05:00 0,1 C 98 % 1015,2 hPa 0,0 l/m 0,6 km/h (0 Bft) NW 315 -0,2 C 0,1 C 2,1 km/h (1 Bft)
12.10.2013 05:05 0,1 C 98 % 1015,2 hPa 0,0 l/m 0,8 km/h (0 Bft) N-NO 22 -0,2 C 0,1 C 2,1 km/h (1 Bft)
12.10.2013 05:10 0,1 C 98 % 1015,1 hPa 0,0 l/m 1,3 km/h (1 Bft) N-NW 337 -0,2 C 0,1 C 2,3 km/h (1 Bft)
12.10.2013 05:15 0,1 C 98 % 1015,1 hPa 0,0 l/m 1,3 km/h (1 Bft) N 360 -0,2 C 0,1 C 0,0 km/h (0 Bft)
12.10.2013 05:20 0,1 C 98 % 1015,1 hPa 0,0 l/m 1,3 km/h (1 Bft) N 360 -0,2 C 0,1 C 2,7 km/h (1 Bft)
12.10.2013 05:25 0,1 C 98 % 1015,1 hPa 0,0 l/m 1,9 km/h (1 Bft) NW 315 -0,2 C 0,1 C 3,7 km/h (1 Bft)
12.10.2013 05:30 0,1 C 98 % 1015,0 hPa 0,0 l/m 3,5 km/h (1 Bft) W-NW 292 -0,2 C -0,7 C 3,7 km/h (1 Bft)
12.10.2013 05:35 0,1 C 98 % 1015,0 hPa 0,0 l/m 3,5 km/h (1 Bft) N-NW 337 -0,2 C -0,6 C 4,0 km/h (1 Bft)
12.10.2013 05:40 0,1 C 98 % 1015,0 hPa 0,0 l/m 2,9 km/h (1 Bft) N 360 -0,2 C -0,2 C 2,7 km/h (1 Bft)
12.10.2013 05:45 0,1 C 98 % 1015,0 hPa 0,0 l/m 2,1 km/h (1 Bft) W 270 -0,2 C 0,2 C 0,0 km/h (0 Bft)
12.10.2013 05:50 0,1 C 98 % 1014,9 hPa 0,0 l/m 0,8 km/h (0 Bft) S 180 -0,2 C 0,2 C 1,8 km/h (1 Bft)
12.10.2013 05:55 0,1 C 98 % 1014,9 hPa 0,0 l/m 0,3 km/h (0 Bft) W-NW 292 -0,2 C 0,2 C 2,3 km/h (1 Bft)
12.10.2013 06:00 0,2 C 98 % 1014,9 hPa 0,0 l/m 2,1 km/h (1 Bft) N 360 -0,1 C 0,2 C 7,6 km/h (2 Bft)
12.10.2013 06:05 0,2 C 98 % 1014,9 hPa 0,0 l/m 3,7 km/h (1 Bft) NW 315 -0,1 C -0,7 C 4,7 km/h (1 Bft)
12.10.2013 06:10 0,2 C 98 % 1014,8 hPa 0,0 l/m 4,5 km/h (1 Bft) N 360 -0,1 C -1,1 C 6,4 km/h (2 Bft)
12.10.2013 06:15 0,2 C 98 % 1014,8 hPa 0,0 l/m 4,0 km/h (1 Bft) N-NO 22 -0,1 C -0,8 C 3,4 km/h (1 Bft)
12.10.2013 06:20 0,2 C 98 % 1014,8 hPa 0,0 l/m 4,2 km/h (1 Bft) N 360 -0,1 C -0,9 C 4,5 km/h (1 Bft)
12.10.2013 06:25 0,2 C 98 % 1014,8 hPa 0,0 l/m 3,2 km/h (1 Bft) NO 45 -0,1 C -0,3 C 3,5 km/h (1 Bft)
12.10.2013 06:30 0,3 C 98 % 1014,8 hPa 0,0 l/m 3,2 km/h (1 Bft) N 360 0,0 C -0,3 C 5,8 km/h (2 Bft)
12.10.2013 06:35 0,3 C 98 % 1014,8 hPa 0,0 l/m 1,6 km/h (1 Bft) NW 315 0,0 C 0,2 C 0,0 km/h (0 Bft)
12.10.2013 06:40 0,3 C 98 % 1014,8 hPa 0,0 l/m 1,3 km/h (1 Bft) N-NW 337 0,0 C 0,2 C 0,0 km/h (0 Bft)
12.10.2013 06:45 0,4 C 98 % 1014,8 hPa 0,0 l/m 1,3 km/h (1 Bft) N-NW 337 0,1 C 0,2 C 0,0 km/h (0 Bft)
12.10.2013 06:50 0,3 C 98 % 1014,6 hPa 0,0 l/m 0,5 km/h (0 Bft) O 90 0,0 C 0,2 C 3,4 km/h (1 Bft)
12.10.2013 06:55 0,3 C 98 % 1014,6 hPa 0,0 l/m 0,5 km/h (0 Bft) SW 225 0,0 C 0,2 C 1,9 km/h (1 Bft)
12.10.2013 07:00 0,3 C 98 % 1014,6 hPa 0,0 l/m 1,1 km/h (1 Bft) S 180 0,0 C 0,2 C 0,0 km/h (0 Bft)
12.10.2013 07:05 0,3 C 98 % 1014,6 hPa 0,0 l/m 0,8 km/h (0 Bft) S 180 0,0 C 0,2 C 0,0 km/h (0 Bft)
12.10.2013 07:10 0,3 C 98 % 1014,2 hPa 0,0 l/m 0,5 km/h (0 Bft) SO 135 0,0 C 0,2 C 0,0 km/h (0 Bft)
12.10.2013 07:15 0,4 C 98 % 1014,2 hPa 0,0 l/m 0,6 km/h (0 Bft) W-NW 292 0,1 C 0,2 C 2,7 km/h (1 Bft)
12.10.2013 07:20 0,4 C 98 % 1014,2 hPa 0,0 l/m 0,8 km/h (0 Bft) W-SW 247 0,1 C 0,2 C 0,0 km/h (0 Bft)
12.10.2013 07:25 0,4 C 98 % 1014,2 hPa 0,0 l/m 0,6 km/h (0 Bft) W 270 0,1 C 0,2 C 0,0 km/h (0 Bft)
12.10.2013 07:30 0,4 C 98 % 1014,2 hPa 0,0 l/m 0,2 km/h (0 Bft) SW 225 0,1 C 0,2 C 0,0 km/h (0 Bft)
12.10.2013 07:35 0,4 C 98 % 1014,2 hPa 0,0 l/m 0,2 km/h (0 Bft) S-SW 202 0,1 C 0,2 C 0,0 km/h (0 Bft)
12.10.2013 07:40 0,4 C 98 % 1014,2 hPa 0,0 l/m 0,0 km/h (0 Bft) W-NW 292 0,1 C 0,2 C 0,0 km/h (0 Bft)
12.10.2013 07:45 0,4 C 98 % 1014,2 hPa 0,0 l/m 0,0 km/h (0 Bft) W-NW 292 0,1 C 0,2 C 0,0 km/h (0 Bft)
12.10.2013 07:50 0,4 C 98 % 1014,0 hPa 0,0 l/m 0,2 km/h (0 Bft) W-NW 292 0,1 C 0,2 C 0,0 km/h (0 Bft)
12.10.2013 07:55 0,4 C 98 % 1014,0 hPa 0,0 l/m 0,2 km/h (0 Bft) W-NW 292 0,1 C 0,2 C 0,0 km/h (0 Bft)
12.10.2013 08:00 0,4 C 98 % 1014,0 hPa 0,0 l/m 0,0 km/h (0 Bft) W-NW 292 0,1 C 0,2 C 0,0 km/h (0 Bft)
12.10.2013 08:05 0,5 C 98 % 1014,0 hPa 0,0 l/m 0,2 km/h (0 Bft) NO 45 0,2 C 0,2 C 0,0 km/h (0 Bft)
12.10.2013 08:10 0,5 C 98 % 1013,9 hPa 0,0 l/m 0,5 km/h (0 Bft) O-NO 67 0,2 C 0,2 C 0,0 km/h (0 Bft)
12.10.2013 08:15 0,5 C 98 % 1013,9 hPa 0,0 l/m 0,3 km/h (0 Bft) O-NO 67 0,2 C 0,2 C 0,0 km/h (0 Bft)
12.10.2013 08:20 0,6 C 98 % 1013,9 hPa 0,0 l/m 0,2 km/h (0 Bft) S-SO 157 0,3 C 0,3 C 0,0 km/h (0 Bft)
12.10.2013 08:25 0,6 C 98 % 1013,9 hPa 0,0 l/m 0,2 km/h (0 Bft) S-SO 157 0,3 C 0,3 C 0,0 km/h (0 Bft)
12.10.2013 08:30 0,7 C 98 % 1014,4 hPa 0,0 l/m 0,0 km/h (0 Bft) S 180 0,4 C 0,4 C 0,0 km/h (0 Bft)
12.10.2013 08:35 0,7 C 98 % 1014,4 hPa 0,0 l/m 0,0 km/h (0 Bft) S 180 0,4 C 0,5 C 0,0 km/h (0 Bft)
12.10.2013 08:40 0,8 C 98 % 1014,4 hPa 0,0 l/m 0,0 km/h (0 Bft) S-SW 202 0,5 C 0,6 C 0,0 km/h (0 Bft)
12.10.2013 08:45 0,8 C 98 % 1014,4 hPa 0,0 l/m 0,0 km/h (0 Bft) W-NW 292 0,5 C 0,7 C 0,0 km/h (0 Bft)
12.10.2013 08:50 0,9 C 98 % 1014,1 hPa 0,0 l/m 0,8 km/h (0 Bft) O 90 0,6 C 0,8 C 2,6 km/h (1 Bft)
12.10.2013 08:55 1,1 C 98 % 1014,1 hPa 0,0 l/m 1,1 km/h (1 Bft) O 90 0,8 C 1,0 C 0,0 km/h (0 Bft)
12.10.2013 09:00 1,2 C 98 % 1014,1 hPa 0,0 l/m 0,6 km/h (0 Bft) N 360 0,9 C 1,1 C 1,9 km/h (1 Bft)
12.10.2013 09:05 1,2 C 98 % 1014,1 hPa 0,0 l/m 0,3 km/h (0 Bft) N-NO 22 0,9 C 1,2 C 1,8 km/h (1 Bft)
12.10.2013 09:10 1,4 C 98 % 1014,1 hPa 0,0 l/m 0,6 km/h (0 Bft) O 90 1,1 C 1,3 C 0,0 km/h (0 Bft)
12.10.2013 09:15 1,4 C 98 % 1014,1 hPa 0,0 l/m 1,1 km/h (1 Bft) W-NW 292 1,1 C 1,5 C 2,1 km/h (1 Bft)
12.10.2013 09:20 1,3 C 98 % 1014,1 hPa 0,0 l/m 0,6 km/h (0 Bft) N-NO 22 1,0 C 1,5 C 1,6 km/h (1 Bft)
12.10.2013 09:25 1,3 C 98 % 1014,1 hPa 0,0 l/m 0,5 km/h (0 Bft) S-SO 157 1,0 C 1,4 C 0,0 km/h (0 Bft)
12.10.2013 09:30 1,5 C 98 % 1014,2 hPa 0,0 l/m 2,4 km/h (1 Bft) S 180 1,2 C 1,6 C 5,1 km/h (1 Bft)
12.10.2013 09:35 1,7 C 98 % 1014,2 hPa 0,0 l/m 3,5 km/h (1 Bft) S-SO 157 1,4 C 1,2 C 5,8 km/h (2 Bft)
12.10.2013 09:40 1,9 C 98 % 1014,2 hPa 0,0 l/m 3,1 km/h (1 Bft) S-SW 202 1,6 C 1,9 C 0,0 km/h (0 Bft)
12.10.2013 09:45 2,2 C 98 % 1014,2 hPa 0,0 l/m 2,9 km/h (1 Bft) O-NO 67 1,9 C 2,2 C 3,9 km/h (1 Bft)
12.10.2013 09:50 2,7 C 98 % 1014,6 hPa 0,0 l/m 2,3 km/h (1 Bft) NO 45 2,4 C 2,9 C 2,6 km/h (1 Bft)
12.10.2013 09:55 3,1 C 97 % 1014,6 hPa 0,0 l/m 1,9 km/h (1 Bft) S 180 2,7 C 3,6 C 5,3 km/h (1 Bft)
12.10.2013 10:00 3,3 C 97 % 1014,6 hPa 0,0 l/m 4,2 km/h (1 Bft) SW 225 2,9 C 4,1 C 10,3 km/h (2 Bft)
12.10.2013 10:05 3,3 C 97 % 1014,6 hPa 0,0 l/m 5,6 km/h (1 Bft) S-SW 202 2,9 C 5,3 C 5,8 km/h (2 Bft)
12.10.2013 10:10 3,6 C 97 % 1015,3 hPa 0,0 l/m 5,0 km/h (1 Bft) S-SO 157 3,2 C 6,8 C 6,3 km/h (2 Bft)
12.10.2013 10:15 3,3 C 97 % 1015,3 hPa 0,0 l/m 5,1 km/h (1 Bft) S 180 2,9 C 6,1 C 5,8 km/h (2 Bft)
12.10.2013 10:20 3,6 C 97 % 1015,3 hPa 0,0 l/m 6,9 km/h (2 Bft) S 180 3,2 C 3,9 C 16,3 km/h (3 Bft)
12.10.2013 10:25 3,6 C 97 % 1015,3 hPa 0,0 l/m 8,2 km/h (2 Bft) SW 225 3,2 C 2,3 C 9,7 km/h (2 Bft)
12.10.2013 10:28 4,4 C 97 % 1016,2 hPa 0,0 l/m 9,0 km/h (2 Bft) S 180 4,0 C 1,8 C 13,2 km/h (3 Bft)
12.10.2013 10:30 4,4 C 97 % 1016,2 hPa 0,0 l/m 9,0 km/h (2 Bft) S 180 4,0 C 1,8 C 13,2 km/h (3 Bft)
12.10.2013 10:35 4,8 C 97 % 1016,2 hPa 0,0 l/m 8,7 km/h (2 Bft) S 180 4,4 C 2,6 C 10,9 km/h (2 Bft)
12.10.2013 10:40 4,6 C 97 % 1016,2 hPa 0,0 l/m 7,7 km/h (2 Bft) S-SO 157 4,2 C 3,6 C 3,9 km/h (1 Bft)
12.10.2013 10:45 4,8 C 96 % 1016,2 hPa 0,0 l/m 7,7 km/h (2 Bft) S 180 4,2 C 3,5 C 13,8 km/h (3 Bft)
12.10.2013 10:50 4,7 C 96 % 1016,5 hPa 0,7 l/m 8,0 km/h (2 Bft) W-SW 247 4,1 C 3,3 C 17,4 km/h (3 Bft)
12.10.2013 10:55 4,8 C 96 % 1016,5 hPa 0,0 l/m 8,4 km/h (2 Bft) S 180 4,2 C 3,4 C 7,9 km/h (2 Bft)
12.10.2013 11:00 5,2 C 95 % 1016,5 hPa 0,0 l/m 8,0 km/h (2 Bft) S-SW 202 4,5 C 4,3 C 10,6 km/h (2 Bft)
12.10.2013 11:05 5,4 C 94 % 1016,5 hPa 0,0 l/m 8,4 km/h (2 Bft) S 180 4,5 C 4,0 C 7,6 km/h (2 Bft)
12.10.2013 11:10 6,3 C 92 % 1016,9 hPa 0,0 l/m 6,8 km/h (2 Bft) S-SW 202 5,1 C 6,5 C 6,3 km/h (2 Bft)
12.10.2013 11:15 6,0 C 89 % 1016,9 hPa 0,0 l/m 6,4 km/h (2 Bft) S-SW 202 4,3 C 7,3 C 7,4 km/h (2 Bft)
12.10.2013 11:20 7,0 C 85 % 1016,9 hPa 0,0 l/m 6,1 km/h (2 Bft) S 180 4,7 C 8,2 C 7,2 km/h (2 Bft)
12.10.2013 11:25 7,4 C 80 % 1016,9 hPa 0,0 l/m 6,0 km/h (2 Bft) S-SW 202 4,2 C 8,9 C 8,9 km/h (2 Bft)
12.10.2013 11:30 7,5 C 79 % 1017,1 hPa 0,0 l/m 6,1 km/h (2 Bft) S 180 4,1 C 9,2 C 6,8 km/h (2 Bft)
12.10.2013 11:35 7,9 C 77 % 1017,1 hPa 0,0 l/m 5,5 km/h (1 Bft) S-SW 202 4,1 C 9,7 C 6,9 km/h (2 Bft)
12.10.2013 11:40 6,5 C 80 % 1017,1 hPa 0,7 l/m 5,1 km/h (1 Bft) S 180 3,3 C 8,8 C 6,1 km/h (2 Bft)
12.10.2013 11:45 5,9 C 82 % 1017,1 hPa 0,0 l/m 5,6 km/h (1 Bft) S-SW 202 3,1 C 7,6 C 6,1 km/h (2 Bft)
12.10.2013 11:50 5,4 C 85 % 1017,6 hPa 0,0 l/m 5,5 km/h (1 Bft) S-SW 202 3,1 C 6,2 C 4,8 km/h (1 Bft)
12.10.2013 11:55 5,4 C 86 % 1017,6 hPa 0,0 l/m 4,0 km/h (1 Bft) S-SW 202 3,3 C 6,1 C 0,0 km/h (0 Bft)
12.10.2013 12:00 5,9 C 88 % 1017,6 hPa 0,0 l/m 2,6 km/h (1 Bft) S 180 4,1 C 6,4 C 0,0 km/h (0 Bft)
12.10.2013 12:05 6,1 C 88 % 1017,6 hPa 0,0 l/m 2,1 km/h (1 Bft) W 270 4,3 C 6,5 C 1,6 km/h (1 Bft)
12.10.2013 12:10 5,9 C 89 % 1017,4 hPa 0,0 l/m 2,3 km/h (1 Bft) SW 225 4,2 C 6,7 C 3,9 km/h (1 Bft)
12.10.2013 12:15 6,2 C 88 % 1017,4 hPa 0,0 l/m 2,7 km/h (1 Bft) S 180 4,4 C 6,7 C 4,8 km/h (1 Bft)
12.10.2013 12:20 6,5 C 88 % 1017,4 hPa 0,0 l/m 3,1 km/h (1 Bft) S-SW 202 4,7 C 7,1 C 6,1 km/h (2 Bft)
12.10.2013 12:25 6,0 C 88 % 1017,4 hPa 0,0 l/m 2,6 km/h (1 Bft) W-SW 247 4,2 C 7,0 C 1,6 km/h (1 Bft)
12.10.2013 12:30 5,9 C 89 % 1017,8 hPa 0,0 l/m 2,9 km/h (1 Bft) S 180 4,2 C 6,8 C 4,2 km/h (1 Bft)
12.10.2013 12:35 6,1 C 89 % 1017,8 hPa 0,0 l/m 2,6 km/h (1 Bft) S-SW 202 4,4 C 6,8 C 1,8 km/h (1 Bft)
12.10.2013 12:40 6,7 C 89 % 1017,8 hPa 0,0 l/m 1,6 km/h (1 Bft) S 180 5,0 C 7,1 C 1,9 km/h (1 Bft)
12.10.2013 12:45 6,7 C 89 % 1017,8 hPa 0,0 l/m 1,6 km/h (1 Bft) S 180 5,0 C 7,5 C 0,0 km/h (0 Bft)
12.10.2013 12:50 6,4 C 89 % 1018,4 hPa 0,0 l/m 1,8 km/h (1 Bft) W-SW 247 4,7 C 7,4 C 2,1 km/h (1 Bft)
12.10.2013 12:55 6,5 C 89 % 1018,4 hPa 0,0 l/m 2,3 km/h (1 Bft) S-SW 202 4,8 C 7,2 C 2,3 km/h (1 Bft)
12.10.2013 13:00 6,1 C 88 % 1018,4 hPa 0,0 l/m 2,6 km/h (1 Bft) S-SW 202 4,3 C 7,1 C 3,7 km/h (1 Bft)
12.10.2013 13:05 6,0 C 88 % 1018,4 hPa 0,0 l/m 2,1 km/h (1 Bft) S 180 4,2 C 6,9 C 1,8 km/h (1 Bft)
12.10.2013 13:10 6,0 C 89 % 1017,9 hPa 0,0 l/m 1,6 km/h (1 Bft) SW 225 4,3 C 6,6 C 3,4 km/h (1 Bft)
12.10.2013 13:15 6,0 C 89 % 1017,9 hPa 0,0 l/m 1,3 km/h (1 Bft) SW 225 4,3 C 6,6 C 3,4 km/h (1 Bft)
12.10.2013 13:20 6,0 C 89 % 1017,9 hPa 0,0 l/m 1,6 km/h (1 Bft) W-SW 247 4,3 C 6,6 C 4,2 km/h (1 Bft)
12.10.2013 13:25 6,1 C 89 % 1017,9 hPa 0,0 l/m 2,4 km/h (1 Bft) S 180 4,4 C 6,6 C 2,3 km/h (1 Bft)
12.10.2013 13:30 6,2 C 89 % 1017,9 hPa 0,0 l/m 3,2 km/h (1 Bft) SO 135 4,5 C 6,7 C 2,1 km/h (1 Bft)
12.10.2013 13:35 6,3 C 89 % 1017,9 hPa 0,0 l/m 2,3 km/h (1 Bft) S 180 4,6 C 6,7 C 0,0 km/h (0 Bft)
12.10.2013 13:40 6,2 C 89 % 1017,9 hPa 0,0 l/m 2,4 km/h (1 Bft) S-SW 202 4,5 C 6,6 C 3,4 km/h (1 Bft)
12.10.2013 13:45 6,3 C 89 % 1017,9 hPa 0,0 l/m 3,2 km/h (1 Bft) SW 225 4,6 C 6,6 C 4,5 km/h (1 Bft)
12.10.2013 13:50 6,4 C 89 % 1017,8 hPa 0,0 l/m 2,9 km/h (1 Bft) S 180 4,7 C 6,8 C 3,4 km/h (1 Bft)
12.10.2013 13:55 6,2 C 89 % 1017,8 hPa 0,0 l/m 2,9 km/h (1 Bft) W-SW 247 4,5 C 6,8 C 3,2 km/h (1 Bft)
12.10.2013 14:00 6,0 C 89 % 1017,8 hPa 0,0 l/m 3,7 km/h (1 Bft) S-SO 157 4,3 C 6,4 C 4,5 km/h (1 Bft)
12.10.2013 14:05 6,0 C 89 % 1017,8 hPa 0,0 l/m 3,7 km/h (1 Bft) S-SO 157 4,3 C 6,4 C 4,5 km/h (1 Bft)
12.10.2013 14:10 6,1 C 89 % 1017,4 hPa 0,0 l/m 3,2 km/h (1 Bft) W-SW 247 4,4 C 6,4 C 6,4 km/h (2 Bft)
12.10.2013 14:15 5,9 C 90 % 1017,4 hPa 0,0 l/m 3,5 km/h (1 Bft) S-SW 202 4,4 C 6,3 C 6,3 km/h (2 Bft)
12.10.2013 14:20 5,8 C 89 % 1017,4 hPa 0,0 l/m 3,7 km/h (1 Bft) S 180 4,1 C 6,1 C 3,9 km/h (1 Bft)
12.10.2013 14:25 5,9 C 89 % 1017,4 hPa 0,0 l/m 3,5 km/h (1 Bft) S 180 4,2 C 6,2 C 2,6 km/h (1 Bft)
12.10.2013 14:30 5,8 C 90 % 1017,9 hPa 0,0 l/m 3,4 km/h (1 Bft) W-SW 247 4,3 C 6,2 C 3,2 km/h (1 Bft)
12.10.2013 14:35 5,6 C 90 % 1017,9 hPa 0,0 l/m 2,9 km/h (1 Bft) S-SW 202 4,1 C 6,1 C 2,9 km/h (1 Bft)
12.10.2013 14:40 5,7 C 90 % 1017,9 hPa 0,0 l/m 2,7 km/h (1 Bft) W-SW 247 4,2 C 6,1 C 3,1 km/h (1 Bft)
12.10.2013 14:45 5,8 C 90 % 1017,9 hPa 0,0 l/m 1,9 km/h (1 Bft) W-NW 292 4,3 C 6,4 C 3,1 km/h (1 Bft)
12.10.2013 14:50 5,9 C 90 % 1017,9 hPa 0,0 l/m 1,0 km/h (0 Bft) N-NW 337 4,4 C 6,6 C 0,0 km/h (0 Bft)
12.10.2013 14:55 6,0 C 90 % 1017,9 hPa 0,0 l/m 0,6 km/h (0 Bft) W-NW 292 4,5 C 6,8 C 0,0 km/h (0 Bft)
12.10.2013 15:00 5,9 C 89 % 1017,9 hPa 0,0 l/m 0,2 km/h (0 Bft) N-NO 22 4,2 C 6,9 C 0,0 km/h (0 Bft)
12.10.2013 15:05 6,1 C 89 % 1017,9 hPa 0,0 l/m 0,0 km/h (0 Bft) W 270 4,4 C 7,0 C 0,0 km/h (0 Bft)
12.10.2013 15:10 6,3 C 90 % 1018,1 hPa 0,0 l/m 0,0 km/h (0 Bft) W-SW 247 4,8 C 7,1 C 0,0 km/h (0 Bft)
12.10.2013 15:15 6,3 C 90 % 1018,1 hPa 0,0 l/m 0,2 km/h (0 Bft) S-SW 202 4,8 C 7,1 C 0,0 km/h (0 Bft)
12.10.2013 15:20 6,0 C 90 % 1018,1 hPa 0,0 l/m 0,2 km/h (0 Bft) S-SW 202 4,5 C 7,1 C 0,0 km/h (0 Bft)
12.10.2013 15:25 6,1 C 90 % 1018,1 hPa 0,0 l/m 0,2 km/h (0 Bft) S-SW 202 4,6 C 7,1 C 0,0 km/h (0 Bft)
12.10.2013 15:30 6,2 C 90 % 1018,0 hPa 0,0 l/m 0,3 km/h (0 Bft) W-SW 247 4,7 C 6,9 C 0,0 km/h (0 Bft)
12.10.2013 15:35 6,2 C 90 % 1018,0 hPa 0,0 l/m 0,3 km/h (0 Bft) NW 315 4,7 C 6,9 C 3,1 km/h (1 Bft)
12.10.2013 15:40 6,1 C 90 % 1018,0 hPa 0,0 l/m 0,3 km/h (0 Bft) W 270 4,6 C 6,8 C 0,0 km/h (0 Bft)
12.10.2013 15:45 6,0 C 90 % 1018,0 hPa 0,0 l/m 0,3 km/h (0 Bft) W 270 4,5 C 6,8 C 0,0 km/h (0 Bft)
12.10.2013 15:50 5,8 C 92 % 1018,0 hPa 0,0 l/m 0,2 km/h (0 Bft) W 270 4,6 C 6,6 C 0,0 km/h (0 Bft)
12.10.2013 15:55 5,8 C 92 % 1018,0 hPa 0,0 l/m 0,2 km/h (0 Bft) W 270 4,6 C 6,6 C 0,0 km/h (0 Bft)
12.10.2013 16:00 5,8 C 92 % 1018,0 hPa 0,0 l/m 0,5 km/h (0 Bft) N 360 4,6 C 6,5 C 0,0 km/h (0 Bft)
12.10.2013 16:05 5,8 C 92 % 1018,0 hPa 0,0 l/m 0,5 km/h (0 Bft) N 360 4,6 C 6,5 C 0,0 km/h (0 Bft)
12.10.2013 16:10 5,7 C 92 % 1018,1 hPa 0,0 l/m 0,2 km/h (0 Bft) W-NW 292 4,5 C 6,4 C 0,0 km/h (0 Bft)
12.10.2013 16:15 5,7 C 92 % 1018,1 hPa 0,0 l/m 0,0 km/h (0 Bft) N-NW 337 4,5 C 6,4 C 0,0 km/h (0 Bft)
12.10.2013 16:20 5,8 C 92 % 1018,1 hPa 0,0 l/m 0,0 km/h (0 Bft) NW 315 4,6 C 6,5 C 0,0 km/h (0 Bft)
12.10.2013 16:25 5,6 C 92 % 1018,1 hPa 0,0 l/m 0,2 km/h (0 Bft) N 360 4,4 C 6,6 C 0,0 km/h (0 Bft)
12.10.2013 16:28 5,6 C 92 % 1018,0 hPa 0,0 l/m 0,2 km/h (0 Bft) NW 315 4,4 C 6,5 C 0,0 km/h (0 Bft)
12.10.2013 16:30 5,6 C 92 % 1018,0 hPa 0,0 l/m 0,2 km/h (0 Bft) NW 315 4,4 C 6,5 C 0,0 km/h (0 Bft)
12.10.2013 16:35 5,7 C 92 % 1018,0 hPa 0,0 l/m 0,3 km/h (0 Bft) W-NW 292 4,5 C 6,5 C 0,0 km/h (0 Bft)
12.10.2013 16:40 5,7 C 92 % 1018,0 hPa 0,0 l/m 1,1 km/h (1 Bft) NO 45 4,5 C 6,4 C 0,0 km/h (0 Bft)
12.10.2013 16:45 5,6 C 92 % 1018,0 hPa 0,0 l/m 1,4 km/h (1 Bft) N 360 4,4 C 6,4 C 2,4 km/h (1 Bft)
12.10.2013 16:50 5,5 C 92 % 1018,0 hPa 0,0 l/m 1,6 km/h (1 Bft) N 360 4,3 C 6,1 C 3,1 km/h (1 Bft)
12.10.2013 16:55 5,5 C 92 % 1018,0 hPa 0,0 l/m 1,6 km/h (1 Bft) N-NW 337 4,3 C 6,1 C 2,3 km/h (1 Bft)
12.10.2013 17:00 5,5 C 92 % 1018,0 hPa 0,0 l/m 1,9 km/h (1 Bft) W-NW 292 4,3 C 5,9 C 2,3 km/h (1 Bft)
12.10.2013 17:05 5,5 C 92 % 1018,0 hPa 0,0 l/m 2,3 km/h (1 Bft) N 360 4,3 C 5,9 C 3,2 km/h (1 Bft)
12.10.2013 17:10 5,3 C 92 % 1018,2 hPa 0,0 l/m 2,1 km/h (1 Bft) N-NO 22 4,1 C 5,8 C 0,0 km/h (0 Bft)
12.10.2013 17:15 5,3 C 92 % 1018,2 hPa 0,0 l/m 1,9 km/h (1 Bft) N-NW 337 4,1 C 5,7 C 0,0 km/h (0 Bft)
12.10.2013 17:20 5,2 C 92 % 1018,2 hPa 0,0 l/m 2,1 km/h (1 Bft) N-NW 337 4,0 C 5,7 C 1,8 km/h (1 Bft)
12.10.2013 17:25 5,3 C 92 % 1018,2 hPa 0,0 l/m 2,3 km/h (1 Bft) W-NW 292 4,1 C 5,7 C 2,9 km/h (1 Bft)
12.10.2013 17:30 5,3 C 92 % 1017,9 hPa 0,0 l/m 2,3 km/h (1 Bft) W-NW 292 4,1 C 5,7 C 2,9 km/h (1 Bft)
12.10.2013 17:35 5,3 C 92 % 1017,9 hPa 0,0 l/m 2,3 km/h (1 Bft) W-NW 292 4,1 C 5,7 C 2,9 km/h (1 Bft)
12.10.2013 17:40 5,2 C 92 % 1017,9 hPa 0,0 l/m 1,4 km/h (1 Bft) N-NW 337 4,0 C 5,7 C 0,0 km/h (0 Bft)
12.10.2013 17:45 5,2 C 92 % 1017,9 hPa 0,0 l/m 1,4 km/h (1 Bft) N-NW 337 4,0 C 5,7 C 0,0 km/h (0 Bft)
12.10.2013 17:50 5,1 C 92 % 1017,8 hPa 0,0 l/m 1,0 km/h (0 Bft) NW 315 3,9 C 5,6 C 5,5 km/h (1 Bft)
12.10.2013 17:55 5,0 C 92 % 1017,8 hPa 0,0 l/m 1,1 km/h (1 Bft) NO 45 3,8 C 5,5 C 5,0 km/h (1 Bft)
12.10.2013 18:00 5,0 C 92 % 1017,8 hPa 0,0 l/m 0,8 km/h (0 Bft) NW 315 3,8 C 5,4 C 0,0 km/h (0 Bft)
12.10.2013 18:05 5,0 C 92 % 1017,8 hPa 0,0 l/m 0,5 km/h (0 Bft) N 360 3,8 C 5,3 C 0,0 km/h (0 Bft)
12.10.2013 18:10 5,0 C 93 % 1018,0 hPa 0,0 l/m 0,0 km/h (0 Bft) N 360 4,0 C 5,3 C 0,0 km/h (0 Bft)
12.10.2013 18:15 5,0 C 93 % 1018,0 hPa 0,0 l/m 0,0 km/h (0 Bft) N 360 4,0 C 5,2 C 0,0 km/h (0 Bft)
12.10.2013 18:20 4,9 C 93 % 1018,0 hPa 0,0 l/m 0,0 km/h (0 Bft) N-NW 337 3,9 C 5,1 C 0,0 km/h (0 Bft)
12.10.2013 18:25 4,9 C 93 % 1018,0 hPa 0,0 l/m 0,0 km/h (0 Bft) N 360 3,9 C 5,1 C 0,0 km/h (0 Bft)
12.10.2013 18:30 4,8 C 93 % 1017,5 hPa 0,0 l/m 0,0 km/h (0 Bft) N-NO 22 3,8 C 5,1 C 0,0 km/h (0 Bft)
12.10.2013 18:35 4,7 C 93 % 1017,5 hPa 0,0 l/m 0,2 km/h (0 Bft) N-NO 22 3,7 C 5,1 C 1,8 km/h (1 Bft)
12.10.2013 18:40 4,7 C 93 % 1017,5 hPa 0,0 l/m 0,2 km/h (0 Bft) N-NW 337 3,7 C 5,0 C 0,0 km/h (0 Bft)
12.10.2013 18:45 4,6 C 93 % 1017,5 hPa 0,0 l/m 0,2 km/h (0 Bft) N 360 3,6 C 4,9 C 0,0 km/h (0 Bft)
12.10.2013 18:50 4,6 C 93 % 1017,8 hPa 0,0 l/m 0,0 km/h (0 Bft) N 360 3,6 C 4,8 C 0,0 km/h (0 Bft)
12.10.2013 18:55 4,6 C 93 % 1017,8 hPa 0,0 l/m 0,2 km/h (0 Bft) N 360 3,6 C 4,8 C 1,6 km/h (1 Bft)
12.10.2013 19:00 4,5 C 93 % 1017,8 hPa 0,0 l/m 0,8 km/h (0 Bft) N 360 3,5 C 4,7 C 2,7 km/h (1 Bft)
12.10.2013 19:05 4,5 C 93 % 1017,8 hPa 0,0 l/m 0,8 km/h (0 Bft) N-NW 337 3,5 C 4,7 C 0,0 km/h (0 Bft)
12.10.2013 19:10 4,4 C 94 % 1017,8 hPa 0,0 l/m 0,6 km/h (0 Bft) N 360 3,5 C 4,7 C 0,0 km/h (0 Bft)
12.10.2013 19:15 4,4 C 94 % 1017,8 hPa 0,0 l/m 0,6 km/h (0 Bft) N 360 3,5 C 4,7 C 0,0 km/h (0 Bft)
12.10.2013 19:20 4,3 C 94 % 1017,8 hPa 0,0 l/m 0,6 km/h (0 Bft) N 360 3,4 C 4,6 C 0,0 km/h (0 Bft)
12.10.2013 19:25 4,3 C 94 % 1017,8 hPa 0,0 l/m 0,3 km/h (0 Bft) N 360 3,4 C 4,5 C 0,0 km/h (0 Bft)
12.10.2013 19:30 4,2 C 94 % 1017,9 hPa 0,0 l/m 0,2 km/h (0 Bft) N 360 3,3 C 4,4 C 0,0 km/h (0 Bft)
12.10.2013 19:35 4,2 C 94 % 1017,9 hPa 0,0 l/m 0,6 km/h (0 Bft) N 360 3,3 C 4,3 C 1,8 km/h (1 Bft)
12.10.2013 19:40 4,1 C 94 % 1017,9 hPa 0,0 l/m 0,8 km/h (0 Bft) N 360 3,2 C 4,2 C 0,0 km/h (0 Bft)
12.10.2013 19:45 4,0 C 94 % 1017,9 hPa 0,0 l/m 0,3 km/h (0 Bft) N-NO 22 3,1 C 4,1 C 0,0 km/h (0 Bft)
12.10.2013 19:50 4,1 C 94 % 1017,8 hPa 0,0 l/m 0,5 km/h (0 Bft) N 360 3,2 C 4,1 C 3,1 km/h (1 Bft)
12.10.2013 19:55 4,0 C 94 % 1017,8 hPa 0,0 l/m 0,6 km/h (0 Bft) N-NO 22 3,1 C 4,1 C 0,0 km/h (0 Bft)
12.10.2013 20:00 3,8 C 94 % 1017,8 hPa 0,0 l/m 0,5 km/h (0 Bft) N-NO 22 2,9 C 3,9 C 0,0 km/h (0 Bft)
12.10.2013 20:05 3,8 C 94 % 1017,8 hPa 0,0 l/m 0,0 km/h (0 Bft) N-NO 22 2,9 C 3,8 C 0,0 km/h (0 Bft)
12.10.2013 20:10 3,7 C 94 % 1018,1 hPa 0,0 l/m 0,0 km/h (0 Bft) N-NO 22 2,8 C 3,7 C 0,0 km/h (0 Bft)
12.10.2013 20:15 3,7 C 94 % 1018,1 hPa 0,0 l/m 0,0 km/h (0 Bft) N-NO 22 2,8 C 3,7 C 0,0 km/h (0 Bft)
12.10.2013 20:20 3,6 C 94 % 1018,1 hPa 0,0 l/m 0,0 km/h (0 Bft) N-NO 22 2,7 C 3,5 C 0,0 km/h (0 Bft)
12.10.2013 20:25 3,4 C 94 % 1018,1 hPa 0,0 l/m 0,0 km/h (0 Bft) N-NO 22 2,5 C 3,4 C 0,0 km/h (0 Bft)
12.10.2013 20:30 3,3 C 94 % 1018,1 hPa 0,0 l/m 0,0 km/h (0 Bft) N-NO 22 2,4 C 3,3 C 0,0 km/h (0 Bft)
12.10.2013 20:35 3,1 C 94 % 1018,1 hPa 0,0 l/m 0,0 km/h (0 Bft) N-NO 22 2,2 C 3,1 C 0,0 km/h (0 Bft)
12.10.2013 20:40 2,8 C 95 % 1018,1 hPa 0,0 l/m 0,0 km/h (0 Bft) N-NO 22 2,1 C 2,8 C 0,0 km/h (0 Bft)
12.10.2013 20:45 2,7 C 95 % 1018,1 hPa 0,0 l/m 0,0 km/h (0 Bft) N-NO 22 2,0 C 2,6 C 0,0 km/h (0 Bft)
12.10.2013 20:50 2,7 C 95 % 1018,1 hPa 0,0 l/m 1,4 km/h (1 Bft) O 90 2,0 C 2,6 C 2,4 km/h (1 Bft)
12.10.2013 20:55 2,6 C 95 % 1018,1 hPa 0,0 l/m 1,8 km/h (1 Bft) O-NO 67 1,9 C 2,6 C 2,3 km/h (1 Bft)
12.10.2013 21:00 2,4 C 95 % 1018,1 hPa 0,0 l/m 1,3 km/h (1 Bft) O 90 1,7 C 2,4 C 1,6 km/h (1 Bft)
12.10.2013 21:05 2,4 C 95 % 1018,1 hPa 0,0 l/m 1,6 km/h (1 Bft) SO 135 1,7 C 2,3 C 2,3 km/h (1 Bft)
12.10.2013 21:10 2,3 C 95 % 1018,1 hPa 0,0 l/m 1,9 km/h (1 Bft) O 90 1,6 C 2,2 C 2,1 km/h (1 Bft)
12.10.2013 21:15 2,3 C 95 % 1018,1 hPa 0,0 l/m 1,4 km/h (1 Bft) O 90 1,6 C 2,1 C 0,0 km/h (0 Bft)
12.10.2013 21:20 2,0 C 95 % 1018,1 hPa 0,0 l/m 0,5 km/h (0 Bft) O-SO 112 1,3 C 1,8 C 0,0 km/h (0 Bft)
12.10.2013 21:25 1,7 C 95 % 1018,1 hPa 0,0 l/m 0,0 km/h (0 Bft) NO 45 1,0 C 1,5 C 0,0 km/h (0 Bft)
12.10.2013 21:30 1,7 C 95 % 1018,1 hPa 0,0 l/m 0,5 km/h (0 Bft) O 90 1,0 C 1,3 C 0,0 km/h (0 Bft)
12.10.2013 21:35 1,7 C 95 % 1018,1 hPa 0,0 l/m 1,1 km/h (1 Bft) O 90 1,0 C 1,2 C 2,3 km/h (1 Bft)
12.10.2013 21:40 1,5 C 95 % 1018,1 hPa 0,0 l/m 1,0 km/h (0 Bft) O-SO 112 0,8 C 1,0 C 2,6 km/h (1 Bft)
12.10.2013 21:45 1,4 C 95 % 1018,1 hPa 0,0 l/m 1,1 km/h (1 Bft) NO 45 0,7 C 0,9 C 0,0 km/h (0 Bft)
12.10.2013 21:50 1,0 C 95 % 1017,9 hPa 0,0 l/m 0,8 km/h (0 Bft) O-SO 112 0,3 C 0,6 C 0,0 km/h (0 Bft)
12.10.2013 21:55 0,9 C 95 % 1017,9 hPa 0,0 l/m 0,3 km/h (0 Bft) NO 45 0,2 C 0,4 C 0,0 km/h (0 Bft)
12.10.2013 22:00 1,1 C 95 % 1017,9 hPa 0,0 l/m 0,8 km/h (0 Bft) NO 45 0,4 C 0,2 C 0,0 km/h (0 Bft)
12.10.2013 22:05 1,1 C 95 % 1017,9 hPa 0,0 l/m 1,3 km/h (1 Bft) O-NO 67 0,4 C 0,2 C 1,8 km/h (1 Bft)
12.10.2013 22:10 0,9 C 95 % 1017,9 hPa 0,0 l/m 1,0 km/h (0 Bft) NO 45 0,2 C 0,3 C 0,0 km/h (0 Bft)
12.10.2013 22:15 0,7 C 95 % 1017,9 hPa 0,0 l/m 0,6 km/h (0 Bft) O-SO 112 -0,0 C 0,1 C 0,0 km/h (0 Bft)
12.10.2013 22:20 0,3 C 95 % 1017,9 hPa 0,0 l/m 0,0 km/h (0 Bft) NO 45 -0,4 C -0,2 C 0,0 km/h (0 Bft)
12.10.2013 22:25 0,3 C 95 % 1017,9 hPa 0,0 l/m 0,0 km/h (0 Bft) NO 45 -0,4 C -0,4 C 0,0 km/h (0 Bft)
12.10.2013 22:28 0,2 C 95 % 1017,9 hPa 0,0 l/m 0,0 km/h (0 Bft) N-NO 22 -0,5 C -0,4 C 0,0 km/h (0 Bft)
12.10.2013 22:30 0,2 C 95 % 1017,9 hPa 0,0 l/m 0,0 km/h (0 Bft) N-NO 22 -0,5 C -0,4 C 0,0 km/h (0 Bft)
12.10.2013 22:35 0,2 C 95 % 1017,9 hPa 0,0 l/m 0,3 km/h (0 Bft) O-SO 112 -0,5 C -0,4 C 0,0 km/h (0 Bft)
12.10.2013 22:40 0,3 C 95 % 1017,9 hPa 0,0 l/m 0,3 km/h (0 Bft) N-NO 22 -0,4 C -0,4 C 0,0 km/h (0 Bft)
12.10.2013 22:45 0,4 C 96 % 1017,9 hPa 0,0 l/m 0,8 km/h (0 Bft) S 180 -0,2 C -0,2 C 3,4 km/h (1 Bft)
12.10.2013 22:50 0,2 C 96 % 1017,8 hPa 0,0 l/m 1,0 km/h (0 Bft) W-SW 247 -0,4 C 0,0 C 0,0 km/h (0 Bft)
12.10.2013 22:55 0,2 C 96 % 1017,8 hPa 0,0 l/m 0,6 km/h (0 Bft) O 90 -0,4 C -0,2 C 0,0 km/h (0 Bft)
12.10.2013 23:00 0,3 C 96 % 1017,8 hPa 0,0 l/m 0,5 km/h (0 Bft) O 90 -0,3 C -0,3 C 0,0 km/h (0 Bft)
12.10.2013 23:05 0,2 C 96 % 1017,8 hPa 0,0 l/m 0,2 km/h (0 Bft) SO 135 -0,4 C -0,3 C 0,0 km/h (0 Bft)
12.10.2013 23:10 0,2 C 96 % 1017,6 hPa 0,0 l/m 0,3 km/h (0 Bft) S-SO 157 -0,4 C -0,3 C 2,1 km/h (1 Bft)
12.10.2013 23:15 0,4 C 96 % 1017,6 hPa 0,0 l/m 0,8 km/h (0 Bft) NO 45 -0,2 C -0,1 C 1,8 km/h (1 Bft)
12.10.2013 23:20 0,4 C 96 % 1017,6 hPa 0,0 l/m 1,0 km/h (0 Bft) O 90 -0,2 C 0,0 C 0,0 km/h (0 Bft)
12.10.2013 23:25 0,4 C 96 % 1017,6 hPa 0,0 l/m 0,3 km/h (0 Bft) S-SW 202 -0,2 C 0,0 C 0,0 km/h (0 Bft)
12.10.2013 23:30 0,3 C 96 % 1017,7 hPa 0,0 l/m 0,0 km/h (0 Bft) S 180 -0,3 C 0,0 C 0,0 km/h (0 Bft)
12.10.2013 23:35 0,3 C 96 % 1017,7 hPa 0,0 l/m 0,6 km/h (0 Bft) S-SW 202 -0,3 C 0,0 C 0,0 km/h (0 Bft)
12.10.2013 23:40 0,2 C 96 % 1017,7 hPa 0,0 l/m 0,6 km/h (0 Bft) S-SO 157 -0,4 C 0,0 C 0,0 km/h (0 Bft)
12.10.2013 23:45 0,2 C 96 % 1017,7 hPa 0,0 l/m 0,2 km/h (0 Bft) S-SO 157 -0,4 C -0,1 C 0,0 km/h (0 Bft)
12.10.2013 23:50 0,4 C 96 % 1017,9 hPa 0,0 l/m 0,2 km/h (0 Bft) O-SO 112 -0,2 C 0,0 C 0,0 km/h (0 Bft)
12.10.2013 23:55 0,4 C 96 % 1017,9 hPa 0,0 l/m 0,2 km/h (0 Bft) SO 135 -0,2 C 0,1 C 0,0 km/h (0 Bft)
_ Min-Zeit 00:10 11:35 08:25 - 23:30 - - 00:10 00:15 23:55
Minimum _ -2,0 C 77 % 1013,9 hPa - 0,0 km/h (0 Bft) - - -2,4 C -2,5 C 0,0 km/h (0 Bft)
_ Max-Zeit 11:35 09:50 13:05 11:40 10:30 - - 11:10 11:35 10:50
Maximum _ 7,9 C 98 % 1018,4 hPa 0,7 l/m 9,0 km/h
S (2 Bft)
- - 5,1 C 9,7 C 17,4 km/h
W-SW (3 Bft)
Durchschnitt _ 2,5 C 94 % 1016,7 hPa #1,4 l/m 1,6 km/h (1 Bft) S - 1,7 C 2,6 C 2,0 km/h (1 Bft)